Location: Unnamed
(48.6007°N, 2.4808°E)
Time: 16:43:24
(UTC+01:00)

VELOX 1 - Visible Passes

Search period start: 20 March 2023 00:00
Search period end: 30 March 2023 01:00
Orbit: 619 x 633 km, 98.4° (Epoch: 20 March)

Date Brightness Start Highest point End Pass type
(mag) Time Alt. Az. Time Alt. Az. Time Alt. Az.
20 Mar ? 05:39:21 10° SE 05:43:31 45° ENE 05:47:42 10° N visible
20 Mar ? 20:36:16 10° NNW 20:39:34 21° WNW 20:42:51 10° WSW visible
21 Mar ? 04:26:43 10° ENE 04:27:11 10° NE 04:27:38 10° NE visible
21 Mar ? 05:58:11 10° SSE 06:02:32 68° ENE 06:06:54 10° N visible
21 Mar ? 20:55:55 10° NNW 20:58:25 15° WNW 21:00:54 10° W visible
22 Mar ? 04:43:34 10° E 04:45:58 15° ENE 04:48:23 10° NNE visible
22 Mar ? 19:37:29 10° N 19:41:50 73° WNW 19:46:08 10° SSW visible
22 Mar ? 21:16:19 10° NW 21:17:13 11° NW 21:18:06 10° WNW visible
23 Mar ? 05:01:34 10° ESE 05:04:49 21° ENE 05:08:03 10° NNE visible
23 Mar ? 19:56:37 10° N 20:00:48 47° WNW 20:04:57 10° SW visible
24 Mar ? 05:19:53 10° SE 05:23:40 29° ENE 05:27:27 10° N visible
24 Mar ? 20:15:52 10° N 20:19:43 32° WNW 20:23:34 10° SW visible
25 Mar ? 05:38:26 10° SE 05:42:34 43° ENE 05:46:42 10° N visible
25 Mar ? 20:35:12 10° NNW 20:38:34 22° WNW 20:41:55 10° WSW visible
26 Mar ? 06:57:11 10° SSE 07:01:30 65° ENE 07:05:50 10° N visible
26 Mar ? 21:54:45 10° NNW 21:57:21 16° WNW 21:59:57 10° W visible
27 Mar ? 05:42:39 10° E 05:44:53 14° ENE 05:47:08 10° NNE visible
27 Mar ? 20:36:20 10° NNE 20:40:40 77° WNW 20:44:58 10° SSW visible
27 Mar ? 22:14:52 10° NW 22:16:05 11° NW 22:17:17 10° WNW visible
28 Mar ? 06:00:30 10° ESE 06:03:39 20° ENE 06:06:47 10° NNE visible
28 Mar ? 20:55:23 10° N 20:59:35 50° WNW 21:03:45 10° SW visible
29 Mar ? 06:18:43 10° ESE 06:22:26 28° ENE 06:26:08 10° N visible
29 Mar ? 21:14:31 10° N 21:18:26 34° WNW 21:22:19 10° SW visible
